User: anonymous
Location: Mentone
(34.5413°N, 85.5351°W)
Time: 02:20:17
(UTC-05:00)
Language:

Cosmos 2026 Rocket - Orbit

View from above orbital plane
View from above orbital plane
View from above satellite
View from above satellite

Ground track
Ground track

The orbit data is extracted from the following two-line orbital elements,

1 20046U 89042B   14108.46624978  .00000057  00000-0  40846-4 0  2840
2 20046 082.9365 084.3610 0043344 069.9380 041.7505 13.77953553250087
Epoch (UTC): 18 April 2014 11:11:23
Eccentricity: 0.0043344
inclination: 82.9365°
perigee height: 939 km
apogee height: 1003 km
right ascension of ascending node: 84.3610°
argument of perigee: 69.9380°
revolutions per day: 13.77953553
mean anomaly at epoch: 41.7505°
orbit number at epoch: 25008

The dashed part of the orbit path shows where the satellite is in the earth's shadow,  

DLR